Ft Pierce, FL

7:12 AM EDT on September 25, 2017 (GMT -0400)
Saint Lucie County International

Weather History for KFPR - February, 2013

Change the Weather History Date:

Thursday, February 21, 2013

  Actual Average Record
Temperature  
Mean Temperature 67 °F -  
Max Temperature 79 °F 76 °F 89 °F (1989)
Min Temperature 55 °F 55 °F 34 °F (1977)
Cooling Degree Days 2    
Growing Degree Days 17 (Base 50)    
Moisture  
Dew Point 59 °F    
Average Humidity 89    
Maximum Humidity 100    
Minimum Humidity 56    
Precipitation  
Precipitation 0.00 in - - ()
Sea Level Pressure  
Sea Level Pressure 30.06 in    
Wind  
Wind Speed 2 mph (SE)    
Max Wind Speed 14 mph    
Max Gust Speed -    
Visibility 4 miles    
Events Fog    
Averages and records for this station are not official NWS values.
T = Trace of Precipitation, MM = Missing Value Source: NWS Daily Summary

Daily Weather History Graph

Daily Weather History Graph

Search for Another Location

Airport or City:

Trip Planner

Search our weather history database for the weather conditions in past years. The results will help you decide how hot, cold, wet, or windy it might be!

Date:

Astronomy

Feb. 21, 2013 Rise Set
Actual Time 6:53 AM EST 6:17 PM EST
Civil Twilight 6:29 AM EST 6:40 PM EST
Nautical Twilight 6:02 AM EST 7:08 PM EST
Astronomical Twilight 5:35 AM EST 7:35 PM EST
Moon 2:43 PM EST (2/21) 3:42 AM EST (2/21)
Length of Visible Light 12h 11m
Length of Day
11h 24m
Waxing Gibbous, 83% of the Moon is Illuminated
Feb 21
Waxing Gibbous
Feb 25
Full
Mar 4
Last Quarter
Mar 11
New
Mar 19
First Quarter

Hourly Weather History & Observations

Time (EST) Temp. Dew Point Humidity Pressure Visibility Wind Dir Wind Speed Gust Speed Precip Events Conditions
12:10 AM 60.8 °F 60.8 °F 100% 30.08 in 1.8 mi Calm Calm - N/A   Clear
12:27 AM 62.6 °F 60.8 °F 94% 30.08 in 3.0 mi Calm Calm - N/A   Clear
12:39 AM 60.8 °F 59.0 °F 94% 30.08 in 1.8 mi Calm Calm - N/A   Clear
12:44 AM 60.8 °F 59.0 °F 94% 30.08 in 0.5 mi Calm Calm - N/A Fog Fog
12:51 AM 60.8 °F 57.2 °F 88% 30.07 in 0.8 mi Calm Calm - N/A   Mist
12:52 AM 60.1 °F 57.9 °F 93% 30.07 in 0.8 mi Calm Calm - N/A   Mist
12:59 AM 60.8 °F 59.0 °F 94% 30.07 in 1.8 mi Calm Calm - N/A   Mostly Cloudy
1:05 AM 60.8 °F 60.8 °F 100% 30.07 in 0.5 mi Calm Calm - N/A Fog Fog
1:15 AM 60.8 °F 60.8 °F 100% 30.06 in 0.2 mi Calm Calm - N/A Fog Fog
1:21 AM 60.8 °F 60.8 °F 100% 30.06 in 0.8 mi Calm Calm - N/A   Mist
1:31 AM 60.8 °F 59.0 °F 94% 30.05 in 0.5 mi Calm Calm - N/A Fog Fog
1:36 AM 59.0 °F 57.2 °F 94% 30.05 in 1.2 mi Calm Calm - N/A   Overcast
1:45 AM 59.0 °F 57.2 °F 94% 30.05 in 0.5 mi Calm Calm - N/A Fog Fog
1:48 AM 59.0 °F 57.2 °F 94% 30.04 in 0.2 mi Calm Calm - N/A Fog Fog
1:53 AM 59.0 °F 57.9 °F 96% 30.04 in 0.2 mi Calm Calm - N/A Fog Fog
2:11 AM 57.2 °F 57.2 °F 100% 30.04 in 0.5 mi Calm Calm - N/A Fog Fog
2:13 AM 57.2 °F 57.2 °F 100% 30.04 in 0.5 mi Calm Calm - N/A Fog Fog
2:25 AM 57.2 °F 57.2 °F 100% 30.04 in 0.2 mi Calm Calm - N/A Fog Fog
2:34 AM 57.2 °F 55.4 °F 94% 30.04 in 0.5 mi Calm Calm - N/A Fog Fog
2:49 AM 57.2 °F 57.2 °F 100% 30.03 in 1.0 mi Calm Calm - N/A   Mist
2:53 AM 57.9 °F 55.9 °F 93% 30.03 in 1.0 mi Calm Calm - N/A   Mist
2:56 AM 57.2 °F 55.4 °F 94% 30.03 in 0.5 mi Calm Calm - N/A Fog Fog
3:05 AM 57.2 °F 55.4 °F 94% 30.03 in 0.2 mi Calm Calm - N/A Fog Fog
3:29 AM 57.2 °F 55.4 °F 94% 30.03 in 0.2 mi WNW 3.5 mph - N/A Fog Fog
3:53 AM 57.0 °F 55.0 °F 93% 30.04 in 0.2 mi WNW 3.5 mph - N/A Fog Fog
4:10 AM 57.2 °F 55.4 °F 94% 30.04 in 0.2 mi Calm Calm - N/A Fog Fog
4:19 AM 57.2 °F 55.4 °F 94% 30.04 in 0.5 mi WNW 3.5 mph - N/A Fog Fog
4:36 AM 57.2 °F 55.4 °F 94% 30.04 in 0.5 mi West 3.5 mph - N/A Fog Fog
4:53 AM 57.0 °F 55.9 °F 96% 30.05 in 0.5 mi Calm Calm - N/A Fog Fog
5:11 AM 57.2 °F 55.4 °F 94% 30.05 in 0.2 mi WNW 3.5 mph - N/A Fog Fog
5:18 AM 57.2 °F 55.4 °F 94% 30.05 in 0.5 mi Calm Calm - N/A Fog Fog
5:27 AM 57.2 °F 55.4 °F 94% 30.05 in 0.8 mi Calm Calm - N/A   Mist
5:44 AM 55.4 °F 55.4 °F 100% 30.06 in 0.5 mi WNW 3.5 mph - N/A Fog Fog
5:53 AM 57.0 °F 55.0 °F 93% 30.06 in 0.8 mi WNW 3.5 mph - N/A   Mist
6:01 AM 57.2 °F 55.4 °F 94% 30.06 in 1.8 mi Calm Calm - N/A   Mostly Cloudy
6:04 AM 57.2 °F 55.4 °F 94% 30.06 in 3.0 mi Calm Calm - N/A   Mostly Cloudy
6:12 AM 55.4 °F 55.4 °F 100% 30.07 in 3.0 mi Calm Calm - N/A   Scattered Clouds
6:53 AM 55.9 °F 55.0 °F 97% 30.07 in 6.0 mi Calm Calm - N/A Fog Shallow Fog
7:10 AM 55.4 °F 55.4 °F 100% 30.08 in 1.8 mi Calm Calm - N/A Fog Shallow Fog
7:13 AM 55.4 °F 55.4 °F 100% 30.08 in 0.8 mi Calm Calm - N/A Fog Shallow Fog
7:16 AM 55.4 °F 55.4 °F 100% 30.08 in 0.5 mi Calm Calm - N/A Fog Shallow Fog
7:26 AM 57.2 °F 55.4 °F 94% 30.09 in 1.2 mi Calm Calm - N/A Fog Shallow Fog
7:28 AM 57.2 °F 55.4 °F 94% 30.09 in 7.0 mi Calm Calm - N/A Fog Shallow Fog
7:53 AM 61.0 °F 60.1 °F 97% 30.09 in 8.0 mi Calm Calm - N/A   Partly Cloudy
8:53 AM 72.0 °F 66.9 °F 84% 30.10 in 10.0 mi Calm Calm - N/A   Partly Cloudy
9:53 AM 75.9 °F 64.9 °F 69% 30.12 in 10.0 mi ESE 6.9 mph - N/A   Clear
10:53 AM 78.1 °F 63.0 °F 60% 30.12 in 10.0 mi SE 8.1 mph - N/A   Scattered Clouds
11:53 AM 78.1 °F 62.1 °F 58% 30.10 in 10.0 mi SE 5.8 mph - N/A   Scattered Clouds
12:53 PM 79.0 °F 63.0 °F 58% 30.08 in 10.0 mi East 8.1 mph - N/A   Scattered Clouds
1:53 PM 78.1 °F 61.0 °F 56% 30.06 in 10.0 mi ESE 8.1 mph - N/A   Partly Cloudy
2:53 PM 78.1 °F 63.0 °F 60% 30.04 in 10.0 mi East 10.4 mph - N/A   Partly Cloudy
3:53 PM 77.0 °F 64.9 °F 66% 30.04 in 10.0 mi SE 12.7 mph - N/A   Partly Cloudy
4:53 PM 75.9 °F 64.0 °F 67% 30.04 in 10.0 mi ESE 13.8 mph - N/A   Clear
5:53 PM 73.9 °F 66.0 °F 76% 30.04 in 10.0 mi ESE 13.8 mph - N/A   Partly Cloudy
6:53 PM 73.0 °F 66.0 °F 79% 30.04 in 10.0 mi ESE 10.4 mph - N/A   Scattered Clouds
7:53 PM 72.0 °F 66.0 °F 81% 30.05 in 10.0 mi ESE 9.2 mph - N/A   Clear
8:53 PM 72.0 °F 66.0 °F 81% 30.06 in 10.0 mi SE 9.2 mph - N/A   Clear
9:53 PM 72.0 °F 66.0 °F 81% 30.06 in 10.0 mi SE 9.2 mph - N/A   Clear
10:53 PM 72.0 °F 66.0 °F 81% 30.06 in 10.0 mi SE 8.1 mph - N/A   Clear
11:53 PM 71.1 °F 66.0 °F 84% 30.07 in 10.0 mi SSE 5.8 mph - N/A   Clear